Location: Lake Almanor
(40.2485°N, 121.1442°W)
Time: 00:20:38
(UTC-07:00)

STARLINK-1102 - Visible Passes

Search period start: 06 June 2020 00:00
Search period end: 16 June 2020 00:00
Orbit: 548 x 551 km, 53.0° (Epoch: 06 June)

Date Brightness Start Highest point End Pass type
(mag) Time Alt. Az. Time Alt. Az. Time Alt. Az.
06 Jun 4.0 20:58:11 10° NW 21:02:18 59° NE 21:06:23 10° ESE visible
06 Jun 5.4 22:38:31 10° W 22:41:32 20° SW 22:42:30 18° SSW visible
07 Jun 5.8 22:33:39 10° W 22:35:52 14° SW 22:37:14 12° SSW visible
